Terminal Aerodrome Forecast
Issued by NWS Louisville, KY

Home | Current Version | Previous Version | Text Only | Print | Product List | Glossary On
Versions: 1 2 3 4 5 6 7 8 9 10 11 12 13 14 15 16 17 18 19 20 21 22 23 24 25 26 27 28 29 30 31 32 33
805
FTUS43 KLMK 270033 AAA
TAFSDF
TAF AMD
KSDF 270033Z 2701/2806 28018G33KT 3SM TSRA BKN030CB
     FM270200 VRB06KT 5SM -SHRA BR BKN035
     FM270500 15004KT 6SM BR SCT050 BKN150
     FM271400 20007KT 6SM -SHRA VCTS SCT025CB BKN100
     FM280000 10007G25KT 3SM SHRA VCTS BKN035CB=

USA.gov is the U.S. government's official web portal to all federal, state and local government web resources and services.